Presure
98 93 98 101 102 92 102 180 107 101 119 94 96 116 158 148 92 92 97 131 157 88 101 84 84 86 82 81 80 79 80 80 90 84 84 79 117 85 120 78 89 85 82
99 99 95 103 93 103 98 102 98 167 101 95 115 153 151 148 155 149 93 89 145 136 84 83 82 83 82 79 81 78 80 81 84 77 101 138 144 85 79 135 135 84 83
99 101 100 102 102 94 100 98 112 144 144 160 95 147 147 149 156 158 176 83 130 136 124 81 78 78 78 80 88 90 77 83 106 93 111 81 86 81 131 152 79 83 91
97 101 100 100 104 101 104 97 107 97 104 143 177 169 123 156 144 123 147 85 88 79 90 88 83 115 87 83 81 95 90 140 109 91 100 158 77 126 77 78 78 147 90
104 107 103 93 108 96 96 109 95 95 95 94 90 93 157 139 93 86 93 83 109 76 74 114 79 96 78 139 90 77 99 80 154 108 83 70 118 125 76 75 145 135 158
135 102 97 98 100 93 95 96 98 89 95 95 95 93 100 83 93 97 104 119 109 80 142 111 188 75 146 83 84 112 151 101 74 91 89 75 91 91 153 171 172 168 173
154 104 93 114 122 97 96 99 96 100 96 97 94 95 99 104 101 133 152 102 153 159 94 160 126 79 73 168 170 88 110 96 90 88 115 181 184 165 172 186 189 233 182
135 155 120 126 99 98 98 102 117 93 101 101 99 105 106 89 96 93 95 94 89 89 109 81 171 154 94 113 87 109 78 84 150 158 168 192 220 223 229 233 240 246 241
128 141 102 132 104 103 103 104 98 98 91 97 98 95 95 99 99 83 77 92 96 94 110 104 77 86 81 75 89 83 87 160 154 162 126 215 221 228 234 238 154 236 229
125 143 105 128 121 107 107 101 91 142 104 94 95 99 109 83 92 99 95 95 91 85 87 93 67 86 88 90 90 112 182 151 160 174 212 221 229 121 234 83 227 136 134
135 140 114 99 147 115 113 101 95 93 101 98 93 98 84 123 81 82 73 85 78 82 105 88 112 162 146 157 90 162 144 216 205 224 220 180 198 140 197 218 146 257 335
136 105 140 149 152 146 145 141 106 96 98 102 96 99 84 94 79 100 100 88 80 92 88 88 84 113 99 151 154 156 187 201 205 220 223 146 130 192 227 217 260 263 271
146 158 137 141 100 142 109 101 104 103 89 80 95 80 83 89 84 84 82 83 82 89 89 126 180 155 161 171 171 151 149 213 213 223 133 133 137 218 244 265 257 265 255
156 146 143 148 141 146 148 152 103 108 110 88 89 75 135 91 113 77 81 83 88 84 160 112 158 153 155 153 157 146 210 208 226 220 173 139 209 223 245 266 252 257 247
160 161 138 130 139 107 143 142 117 145 83 82 103 128 90 89 83 90 90 94 86 155 90 145 180 165 166 149 150 208 215 200 135 129 148 203 213 220 243 263 250 246 239
148 134 159 143 131 137 139 143 124 139 87 83 85 82 117 86 76 89 89 84 159 85 179 173 151 155 150 144 207 203 212 185 188 179 199 202 210 215 232 240 250 247 233
126 165 165 130 132 76 86 84 157 96 96 161 79 153 98 156 119 92 88 156 179 176 166 191 145 146 141 192 212 212 171 206 202 196 189 207 211 216 245 237 257 244 231
179 172 170 155 152 86 73 162 83 96 80 75 84 111 106 92 90 87 94 140 172 170 179 164 140 192 201 210 210 205 128 193 193 192 202 223 207 221 245 231 252 251 231
179 150 183 77 172 76 94 133 73 163 83 128 97 89 92 131 90 87 169 172 175 176 183 189 191 165 159 219 212 203 194 191 189 183 197 197 203 219 209 232 230 250 239
168 85 64 102 185 177 176 145 127 93 83 83 84 150 106 90 165 148 174 180 175 178 184 193 193 199 216 217 203 197 189 190 184 177 192 200 203 219 212 232 228 223 219
126 153 82 131 119 72 77 78 83 82 84 90 91 91 98 168 163 171 179 176 177 184 191 159 135 211 215 204 203 189 188 192 186 184 191 192 193 148 218 242 227 225 215
76 182 81 74 78 79 84 83 88 87 178 91 87 156 169 147 151 177 167 143 182 188 193 189 212 193 209 195 202 183 185 193 187 188 184 200 148 219 217 227 238 219 223
96 176 175 89 89 89 87 90 90 131 89 174 165 167 165 158 178 159 142 185 188 193 196 207 184 205 200 200 191 184 187 202 190 199 179 174 197 215 223 226 240 229 217
147 89 86 137 89 89 94 156 175 178 179 177 173 172 168 178 183 185 189 188 193 200 206 183 198 201 197 198 183 181 186 193 178 151 201 180 202 216 226 235 247 235 219
205 91 186 175 181 182 173 179 180 180 173 184 185 180 189 193 191 197 201 185 197 174 180 203 199 197 198 198 177 178 191 197 180 182 152 170 203 222 241 243 239 237 222
207 203 192 189 197 172 181 182 185 182 187 182 192 176 175 188 195 185 206 208 176 185 204 194 197 196 195 183 179 188 189 165 184 160 189 189 208 232 253 244 234 224 212
Wind_Speed
16 15 14 14 11 10 7 24 7 7 8 6 5 9 13 13 7 8 9 12 15 9 9 12 13 14 14 15 16 15 16 17 22 18 19 17 27 21 31 20 26 26 23
19 19 16 16 14 10 8 7 6 19 7 7 13 14 14 14 15 14 10 9 14 15 13 14 16 17 19 21 21 21 21 22 23 19 28 38 40 24 24 40 42 30 29
21 21 19 17 16 12 10 8 11 13 14 15 8 16 15 15 15 16 22 8 13 18 17 14 15 17 18 19 20 21 21 20 32 29 31 25 28 29 38 44 32 36 40
23 22 21 18 19 15 16 9 13 7 9 15 20 18 14 15 16 12 17 10 11 13 17 17 17 24 22 22 19 32 26 40 31 28 31 42 29 43 30 34 35 49 45
27 27 25 19 23 15 13 19 12 11 10 10 10 9 18 17 14 10 10 11 17 13 14 23 19 21 20 29 31 20 26 25 45 35 27 26 43 44 34 31 47 46 48
33 28 23 23 22 18 17 14 14 15 13 12 12 12 16 12 15 19 22 24 23 18 27 24 30 19 31 26 27 43 43 35 28 42 34 34 42 44 50 50 49 49 51
35 30 24 31 26 21 19 18 17 19 17 17 14 16 18 21 19 22 25 25 27 29 26 33 28 24 22 39 40 39 45 36 43 37 47 59 59 52 54 55 58 65 55
40 37 34 33 26 24 24 25 25 16 23 22 20 25 26 16 21 19 21 20 21 24 29 16 37 37 29 40 37 43 28 37 54 56 59 61 61 63 64 66 65 63 62
40 39 32 37 31 30 29 29 21 21 17 20 20 19 22 26 26 18 19 25 29 30 32 35 32 41 35 27 44 36 48 55 57 60 42 61 64 64 65 64 55 60 60
41 41 35 42 35 33 34 27 20 34 29 20 20 27 29 19 20 33 28 30 29 27 36 40 19 43 51 51 50 55 54 55 60 63 59 60 59 29 61 45 60 62 63
45 46 38 33 41 36 31 30 24 21 27 25 21 29 18 32 19 23 25 28 27 30 36 41 46 47 52 47 54 55 55 54 54 54 56 46 58 58 60 61 61 46 20
50 41 45 46 45 44 45 41 37 26 26 32 27 32 18 29 23 40 41 34 31 42 42 46 47 36 44 49 54 58 58 56 57 56 54 59 58 59 58 60 44 41 34
58 58 49 48 32 47 39 35 37 34 22 17 28 17 23 29 27 30 33 36 36 41 46 49 50 53 54 57 60 57 60 60 60 55 61 62 64 58 55 42 40 35 33
62 58 55 55 50 49 50 50 36 41 42 21 25 19 43 36 45 32 37 40 45 43 49 53 53 53 55 57 59 57 60 59 62 55 59 66 58 56 53 38 41 34 32
66 66 53 49 50 36 48 48 36 48 20 21 41 41 31 33 34 42 44 50 49 49 55 55 56 56 58 58 60 60 61 57 65 64 66 57 57 56 52 37 39 34 31
64 56 65 57 50 52 51 51 42 47 21 26 30 29 42 36 33 45 49 45 52 56 55 55 56 58 57 58 64 60 58 58 59 59 56 57 56 56 54 46 38 33 32
53 68 66 51 53 14 23 23 58 33 35 53 30 52 39 56 52 47 52 56 60 54 57 63 57 57 59 62 64 61 60 57 54 56 58 55 54 54 49 46 35 36 36
75 68 71 68 66 22 18 62 22 35 28 25 36 51 54 46 48 49 57 56 59 57 62 60 58 64 68 69 63 59 68 55 56 58 57 56 53 54 46 44 41 35 36
77 59 74 23 69 23 30 52 23 61 35 49 44 45 46 55 53 51 65 62 59 60 64 70 68 64 62 68 61 58 55 55 56 58 56 56 53 54 52 42 42 39 36
76 30 11 40 71 67 68 55 45 38 41 42 46 58 54 54 64 65 68 65 60 63 66 72 70 70 71 65 58 56 56 57 57 58 58 56 53 55 51 43 40 39 38
51 65 31 57 44 27 33 37 41 41 47 51 53 55 59 66 65 69 73 63 62 68 73 66 64 74 68 61 59 56 57 58 60 60 59 56 54 55 52 43 41 40 40
28 82 31 27 33 36 42 42 47 49 64 55 47 64 65 63 64 74 67 63 68 71 74 71 75 68 62 63 60 59 60 60 61 62 61 61 55 62 56 51 43 43 42
50 83 78 43 44 46 45 50 52 59 52 64 65 65 66 67 74 64 63 71 72 74 74 75 69 66 63 61 59 61 63 64 63 63 60 59 63 66 60 54 46 45 46
62 39 38 56 47 48 51 64 69 67 67 65 66 67 70 73 76 80 77 73 73 75 75 70 69 66 64 61 60 63 65 64 63 63 65 58 67 68 64 57 50 46 47
88 29 83 73 75 75 72 72 72 70 66 68 69 69 73 75 78 81 78 68 72 66 69 68 67 65 65 63 64 66 66 66 65 66 64 60 70 67 61 55 52 49 48
83 81 79 76 72 72 75 75 75 71 71 69 71 68 69 74 78 69 75 71 67 70 67 68 67 66 65 63 66 69 68 63 69 58 71 73 78 69 55 54 53 52 51
Wind_Direction
215 215 222 229 230 218 244 290 270 283 284 283 289 272 254 264 298 306 300 279 279 336 322 359 358 350 358 1 359 357 356 355 338 341 339 334 283 322 283 320 316 317 310
217 225 225 236 218 239 227 251 244 282 293 294 301 244 256 258 265 268 297 312 275 260 340 347 349 346 344 350 342 342 343 340 336 335 316 277 277 312 319 280 277 310 305
220 227 230 235 234 218 236 230 261 267 256 274 263 254 252 254 267 275 295 331 282 266 278 338 343 342 341 335 321 317 330 321 309 318 296 313 317 315 285 284 311 308 304
221 228 229 229 242 240 253 237 245 246 278 273 285 281 288 266 260 276 265 306 314 334 303 306 326 293 313 317 317 312 314 283 293 297 300 282 309 288 305 302 304 286 297
231 232 233 223 239 223 226 252 233 243 254 247 247 263 271 264 286 280 299 319 298 334 335 292 316 304 318 295 312 305 290 310 283 295 303 321 290 298 296 304 280 280 277
245 229 226 232 235 230 230 237 247 227 256 255 260 253 290 260 275 294 302 296 299 306 279 298 298 313 285 310 309 301 285 298 296 311 303 294 303 303 288 286 284 278 280
246 236 233 240 248 241 237 244 244 256 262 267 263 274 289 290 291 276 290 304 288 292 297 297 289 305 308 296 296 310 299 297 311 299 293 296 294 291 291 283 289 285 278
241 248 242 243 240 242 249 252 259 240 269 275 281 286 285 272 285 278 295 293 288 298 298 299 298 296 299 292 309 299 301 311 292 296 299 298 296 294 292 290 289 286 284
244 245 247 245 245 248 250 256 247 250 237 268 276 276 279 294 293 279 291 296 300 302 302 301 301 305 303 299 308 308 310 300 294 299 306 300 299 299 297 295 283 290 288
245 247 249 246 250 251 252 249 239 267 265 260 271 282 283 293 282 297 296 300 300 303 304 304 303 306 304 307 309 307 301 295 300 300 304 304 304 308 299 297 296 288 287
249 250 249 248 255 252 250 252 248 248 262 267 264 276 280 279 282 287 299 297 299 301 297 301 294 304 303 302 309 302 296 314 307 313 309 308 301 295 301 303 291 303 305
251 246 250 255 256 257 260 256 258 252 259 265 268 274 273 281 297 291 295 298 299 302 302 302 302 304 307 299 300 301 311 313 311 315 313 300 302 305 310 305 316 313 307
252 252 250 251 250 255 256 254 258 260 251 262 268 276 284 285 288 290 294 298 303 302 303 303 304 302 303 304 304 299 300 319 319 318 304 305 306 309 321 321 317 314 306
249 250 251 253 252 255 260 263 259 263 264 261 271 292 280 287 283 292 297 303 303 304 300 303 299 300 302 301 301 299 320 317 321 318 311 310 309 316 325 321 319 317 316
245 245 252 252 254 250 259 260 261 266 258 273 274 281 281 287 295 293 296 296 304 298 305 300 303 300 304 300 302 320 319 315 302 309 308 311 316 319 325 319 316 314 310
244 249 248 253 252 256 259 261 261 266 289 278 281 289 282 293 297 295 298 302 295 303 302 300 296 299 301 301 320 318 318 314 313 311 312 315 317 320 322 320 310 306 303
246 244 246 251 252 242 249 248 262 257 267 269 286 276 292 283 285 295 298 293 293 300 296 309 297 301 301 314 319 319 311 319 316 313 314 317 319 320 320 317 300 300 302
244 244 244 248 252 253 254 257 286 264 280 284 294 277 281 293 297 297 297 294 294 299 304 300 298 312 315 317 318 316 306 314 315 314 316 325 319 320 318 314 305 293 296
242 243 245 240 250 256 268 262 274 262 286 272 289 291 291 285 297 296 287 292 300 304 307 309 309 305 305 315 316 314 315 312 313 312 315 316 318 320 315 312 310 293 290
241 239 266 250 249 251 255 258 264 276 289 292 293 280 287 294 283 287 289 293 301 304 305 307 310 312 313 313 312 312 312 310 309 310 312 316 318 320 314 310 308 302 297
243 244 256 251 255 270 279 285 282 287 289 285 287 290 291 280 283 287 288 297 301 303 306 299 296 311 310 309 309 309 310 310 308 309 310 310 312 308 314 310 304 300 295
255 242 257 276 275 278 276 281 281 286 267 288 290 275 277 281 283 286 290 285 301 302 305 305 307 307 307 307 308 308 309 309 308 309 308 313 307 316 312 310 302 298 294
250 241 244 262 268 272 277 280 282 273 286 269 271 274 278 280 282 287 286 296 299 302 301 303 305 304 304 305 306 308 310 310 307 309 307 309 314 315 311 308 301 295 294
239 258 264 252 270 274 277 258 261 264 266 269 271 274 276 279 281 282 289 295 298 299 299 301 301 301 302 304 305 306 308 309 307 303 310 307 313 313 309 304 296 291 289
230 262 240 246 247 249 256 258 260 262 266 268 271 273 276 277 279 282 285 296 295 298 298 298 298 300 303 305 305 306 307 310 307 308 306 307 312 311 305 298 295 292 289
229 233 238 242 243 251 253 256 258 263 265 268 270 274 277 277 277 290 288 290 293 295 295 296 298 300 303 303 305 305 307 305 305 306 311 312 313 310 302 297 294 292 294